"SCLK","SCET","ORBIT_NUMBER","ALTITUDE","LATITUDE_PLANEOGRAPHIC","LATITUDE_PLANETOCENTRIC","LOCAL_TRUE_SOLAR_TIME","WEST_LONGITUDE","X_SUN_DIR_DISTANCE","RHO_PRP_SUN_DISTANCE","SOLAR_ZENITH_ANGLE","ELECTRON_PLASMA_FREQUENCY","FPE_QUALITY","FPP_VERIFICATION","ELECTRON_PLASMA_DENSITY","ELECTRON_CYCLOTRON_PERIOD","FCP_QUALITY","B_MAGNITUDE"
"1/0365924024.05503",2014-12-06T05:33:48.052,13872,1564.00,37.36,37.11,"00:04:51",141.15,-1.300,0.670,152.54,4.10e+01,2,,2.08e+01,3.10e+00,1,1.15e+01
"1/0365924031.41089",2014-12-06T05:33:55.595,13872,1553.00,37.64,37.39,"00:02:41",141.16,-1.290,0.670,152.41,4.20e+01,2,,2.19e+01,3.14e+00,1,1.14e+01
"1/0365924039.11205",2014-12-06T05:34:03.139,13872,1542.00,37.93,37.67,"00:02:48",141.16,-1.290,0.670,152.28,4.30e+01,2,,2.29e+01,3.14e+00,1,1.14e+01
"1/0365924046.46791",2014-12-06T05:34:10.682,13872,1532.00,38.21,37.95,"00:00:38",141.17,-1.280,0.670,152.14,4.40e+01,2,,2.40e+01,3.16e+00,1,1.13e+01
"1/0365924054.16841",2014-12-06T05:34:18.225,13872,1521.00,38.50,38.24,"00:00:45",141.17,-1.280,0.680,152.00,4.50e+01,2,,2.51e+01,3.16e+00,1,1.13e+01
"1/0365924061.52427",2014-12-06T05:34:25.768,13872,1510.00,38.78,38.52,"23:58:35",141.18,-1.270,0.680,151.86,5.00e+01,2,,3.10e+01,3.18e+00,1,1.12e+01
"1/0365924069.22477",2014-12-06T05:34:33.311,13872,1499.00,39.07,38.81,"23:56:25",141.19,-1.270,0.680,151.72,5.90e+01,2,,4.32e+01,3.18e+00,1,1.12e+01
"1/0365924076.58128",2014-12-06T05:34:40.855,13872,1489.00,39.36,39.10,"23:56:32",141.19,-1.260,0.680,151.57,6.50e+01,2,,5.24e+01,3.16e+00,1,1.13e+01
"1/0365924084.28178",2014-12-06T05:34:48.398,13872,1478.00,39.65,39.39,"23:56:40",141.19,-1.260,0.680,151.42,7.50e+01,2,,6.98e+01,3.12e+00,1,1.14e+01
"1/0365924091.63764",2014-12-06T05:34:55.941,13872,1467.00,39.94,39.68,"23:54:30",141.20,-1.250,0.680,151.27,8.80e+01,2,,9.60e+01,3.33e+00,1,1.07e+01
"1/0365924099.33814",2014-12-06T05:35:03.484,13872,1457.00,40.24,39.97,"23:54:37",141.20,-1.250,0.690,151.11,8.60e+01,2,,9.17e+01,3.25e+00,1,1.10e+01
"1/0365924107.03864",2014-12-06T05:35:11.027,13872,1446.00,40.53,40.26,"23:52:27",141.21,-1.250,0.690,150.96,9.10e+01,2,,1.03e+02,3.17e+00,1,1.13e+01
"1/0365924114.39516",2014-12-06T05:35:18.571,13872,1436.00,40.83,40.56,"23:52:34",141.21,-1.240,0.690,150.80,1.06e+02,2,,1.39e+02,3.50e+00,1,1.02e+01
"1/0365924122.09566",2014-12-06T05:35:26.114,13872,1425.00,41.12,40.85,"23:52:41",141.21,-1.240,0.690,150.63,1.09e+02,2,,1.47e+02,3.50e+00,1,1.02e+01
"1/0365924129.45152",2014-12-06T05:35:33.657,13872,1415.00,41.42,41.15,"23:52:49",141.21,-1.230,0.690,150.47,1.22e+02,2,,1.85e+02,,,
"1/0365924137.15202",2014-12-06T05:35:41.200,13872,1404.00,41.72,41.45,"23:50:39",141.22,-1.230,0.700,150.30,1.27e+02,2,,2.00e+02,,,
"1/0365924144.50788",2014-12-06T05:35:48.743,13872,1394.00,42.02,41.75,"23:50:46",141.22,-1.220,0.700,150.13,1.23e+02,2,,1.88e+02,,,
"1/0365924152.20904",2014-12-06T05:35:56.287,13872,1383.00,42.32,42.05,"23:50:53",141.22,-1.220,0.700,149.96,1.20e+02,2,,1.79e+02,,,
"1/0365924159.56490",2014-12-06T05:36:03.830,13872,1373.00,42.63,42.35,"23:51:01",141.22,-1.210,0.700,149.78,1.17e+02,2,,1.70e+02,,,
"1/0365924167.26540",2014-12-06T05:36:11.373,13872,1362.00,42.93,42.66,"23:51:08",141.22,-1.210,0.700,149.60,1.13e+02,2,,1.58e+02,,,
"1/0365924174.62126",2014-12-06T05:36:18.916,13872,1352.00,43.24,42.96,"23:51:15",141.22,-1.200,0.710,149.42,1.16e+02,2,,1.67e+02,,,
"1/0365924182.32176",2014-12-06T05:36:26.459,13872,1342.00,43.55,43.27,"23:51:23",141.22,-1.200,0.710,149.24,1.21e+02,2,,1.82e+02,,,
"1/0365924190.02291",2014-12-06T05:36:34.003,13872,1331.00,43.85,43.57,"23:51:30",141.22,-1.190,0.710,149.05,1.11e+02,2,,1.53e+02,,,
"1/0365924197.37877",2014-12-06T05:36:41.546,13872,1321.00,44.16,43.88,"23:51:37",141.22,-1.190,0.710,148.86,1.13e+02,2,,1.58e+02,,,
"1/0365924205.07927",2014-12-06T05:36:49.089,13872,1311.00,44.48,44.19,"23:51:45",141.22,-1.180,0.720,148.67,1.12e+02,2,,1.56e+02,,,
"1/0365924212.43513",2014-12-06T05:36:56.632,13872,1301.00,44.79,44.51,"23:54:09",141.21,-1.180,0.720,148.48,1.05e+02,2,,1.37e+02,,,
"1/0365924220.13563",2014-12-06T05:37:04.175,13872,1290.00,45.10,44.82,"23:54:17",141.21,-1.170,0.720,148.28,9.90e+01,2,,1.22e+02,,,
"1/0365924227.49215",2014-12-06T05:37:11.719,13872,1280.00,45.42,45.13,"23:54:24",141.21,-1.170,0.720,148.08,1.01e+02,2,,1.26e+02,,,
"1/0365924235.19265",2014-12-06T05:37:19.262,13872,1270.00,45.73,45.45,"23:56:49",141.20,-1.160,0.730,147.88,9.70e+01,2,,1.17e+02,,,
"1/0365924242.54851",2014-12-06T05:37:26.805,13872,1260.00,46.05,45.77,"23:56:56",141.20,-1.160,0.730,147.68,9.50e+01,2,,1.12e+02,,,
"1/0365924250.24901",2014-12-06T05:37:34.348,13872,1250.00,46.37,46.09,"23:59:21",141.19,-1.150,0.730,147.47,1.00e+02,2,,1.24e+02,,,
"1/0365924257.60553",2014-12-06T05:37:41.892,13872,1240.00,46.69,46.41,"23:59:28",141.19,-1.150,0.730,147.26,9.90e+01,2,,1.22e+02,,,
"1/0365924265.30603",2014-12-06T05:37:49.435,13872,1230.00,47.01,46.73,"00:01:53",141.18,-1.140,0.740,147.05,9.40e+01,2,,1.10e+02,,,
"1/0365924273.00653",2014-12-06T05:37:56.978,13872,1220.00,47.34,47.05,"00:04:18",141.17,-1.140,0.740,146.83,9.60e+01,2,,1.14e+02,,,
"1/0365924280.36239",2014-12-06T05:38:04.521,13872,1210.00,47.66,47.38,"00:04:26",141.17,-1.130,0.740,146.62,7.80e+01,2,,7.54e+01,,,
"1/0365924288.06289",2014-12-06T05:38:12.064,13872,1200.00,47.99,47.70,"00:06:50",141.16,-1.130,0.740,146.40,7.10e+01,2,,6.25e+01,,,
"1/0365924295.41940",2014-12-06T05:38:19.608,13872,1190.00,48.31,48.03,"00:09:15",141.15,-1.120,0.750,146.18,7.20e+01,2,,6.43e+01,,,
"1/0365924303.11990",2014-12-06T05:38:27.151,13872,1180.00,48.64,48.36,"00:11:40",141.14,-1.120,0.750,145.95,6.50e+01,2,,5.24e+01,,,
"1/0365924310.47576",2014-12-06T05:38:34.694,13872,1170.00,48.97,48.69,"00:14:05",141.13,-1.110,0.750,145.73,7.10e+01,2,,6.25e+01,,,
"1/0365924318.17626",2014-12-06T05:38:42.237,13872,1161.00,49.30,49.02,"00:16:30",141.12,-1.100,0.750,145.50,7.10e+01,2,,6.25e+01,,,
"1/0365924325.53212",2014-12-06T05:38:49.780,13872,1151.00,49.64,49.35,"00:18:55",141.11,-1.100,0.760,145.26,7.40e+01,2,,6.79e+01,,,
"1/0365924333.23328",2014-12-06T05:38:57.324,13872,1141.00,49.97,49.69,"00:21:19",141.10,-1.090,0.760,145.03,8.10e+01,2,,8.14e+01,,,
"1/0365924340.58914",2014-12-06T05:39:04.867,13872,1132.00,50.31,50.02,"00:26:02",141.08,-1.090,0.760,144.79,8.50e+01,2,,8.96e+01,,,
"1/0365924348.28964",2014-12-06T05:39:12.410,13872,1122.00,50.65,50.36,"00:28:27",141.07,-1.080,0.770,144.56,9.00e+01,2,,1.00e+02,,,
"1/0365924355.64550",2014-12-06T05:39:19.953,13872,1112.00,50.98,50.70,"00:33:09",141.05,-1.080,0.770,144.31,9.00e+01,2,,1.00e+02,,,
"1/0365924363.34600",2014-12-06T05:39:27.496,13872,1103.00,51.32,51.04,"00:35:34",141.04,-1.070,0.770,144.07,9.40e+01,2,,1.10e+02,,,
"1/0365924371.04716",2014-12-06T05:39:35.040,13872,1093.00,51.66,51.38,"00:40:16",141.02,-1.070,0.770,143.82,9.70e+01,2,,1.17e+02,,,
"1/0365924378.40302",2014-12-06T05:39:42.583,13872,1084.00,52.01,51.72,"00:44:59",141.00,-1.060,0.780,143.58,9.90e+01,2,,1.22e+02,,,
"1/0365924386.10352",2014-12-06T05:39:50.126,13872,1074.00,52.35,52.07,"00:47:23",140.99,-1.060,0.780,143.33,9.90e+01,2,,1.22e+02,,,
"1/0365924393.45938",2014-12-06T05:39:57.669,13872,1065.00,52.70,52.41,"00:52:06",140.97,-1.050,0.780,143.07,9.70e+01,2,,1.17e+02,,,
"1/0365924401.15988",2014-12-06T05:40:05.212,13872,1056.00,53.04,52.76,"00:56:48",140.95,-1.040,0.790,142.82,1.01e+02,2,,1.26e+02,,,
"1/0365924408.51639",2014-12-06T05:40:12.756,13872,1046.00,53.39,53.11,"01:01:30",140.93,-1.040,0.790,142.56,9.00e+01,2,,1.00e+02,,,
"1/0365924416.21689",2014-12-06T05:40:20.299,13872,1037.00,53.74,53.46,"01:08:30",140.90,-1.030,0.790,142.30,9.50e+01,2,,1.12e+02,,,
"1/0365924423.57275",2014-12-06T05:40:27.842,13872,1028.00,54.09,53.81,"01:13:13",140.88,-1.030,0.800,142.04,9.70e+01,2,,1.17e+02,,,
"1/0365924431.27325",2014-12-06T05:40:35.385,13872,1019.00,54.45,54.16,"01:20:13",140.85,-1.020,0.800,141.77,1.04e+02,2,,1.34e+02,,,
"1/0365924438.62911",2014-12-06T05:40:42.928,13872,1010.00,54.80,54.52,"01:24:55",140.83,-1.010,0.800,141.50,1.05e+02,2,,1.37e+02,,,
"1/0365924446.33027",2014-12-06T05:40:50.472,13872,1000.00,55.16,54.87,"01:31:55",140.80,-1.010,0.800,141.23,1.09e+02,2,,1.47e+02,,,
"1/0365924454.03077",2014-12-06T05:40:58.015,13872,991.00,55.51,55.23,"01:38:55",140.77,-1.000,0.810,140.96,1.09e+02,2,,1.47e+02,,,
"1/0365924461.38663",2014-12-06T05:41:05.558,13872,982.00,55.87,55.59,"01:45:55",140.74,-1.000,0.810,140.69,1.02e+02,2,,1.29e+02,,,
"1/0365924469.08713",2014-12-06T05:41:13.101,13872,973.00,56.23,55.95,"01:52:54",140.71,-0.990,0.810,140.41,9.90e+01,2,,1.22e+02,2.64e+00,1,1.35e+01
"1/0365924476.44299",2014-12-06T05:41:20.644,13872,965.00,56.59,56.31,"01:59:54",140.68,-0.980,0.820,140.13,9.60e+01,2,,1.14e+02,,,
"1/0365924484.14415",2014-12-06T05:41:28.188,13872,956.00,56.95,56.68,"02:06:54",140.65,-0.980,0.820,139.85,9.30e+01,2,,1.07e+02,,,
"1/0365924491.50001",2014-12-06T05:41:35.731,13872,947.00,57.32,57.04,"02:16:12",140.61,-0.970,0.820,139.57,8.60e+01,2,,9.17e+01,5.18e+00,1,6.90e+00
"1/0365924499.20051",2014-12-06T05:41:43.274,13872,938.00,57.68,57.41,"02:25:29",140.57,-0.970,0.830,139.29,8.50e+01,2,,8.96e+01,,,
"1/0365924506.55637",2014-12-06T05:41:50.817,13872,929.00,58.05,57.77,"02:34:46",140.53,-0.960,0.830,139.00,9.10e+01,2,,1.03e+02,,,
"1/0365924514.25687",2014-12-06T05:41:58.360,13872,921.00,58.42,58.14,"02:44:04",140.49,-0.950,0.830,138.71,8.50e+01,2,,8.96e+01,,,
"1/0365924521.61338",2014-12-06T05:42:05.904,13872,912.00,58.79,58.51,"02:53:21",140.45,-0.950,0.840,138.42,8.40e+01,2,,8.75e+01,,,
"1/0365924529.31388",2014-12-06T05:42:13.447,13872,904.00,59.16,58.89,"03:02:38",140.41,-0.940,0.840,138.12,8.70e+01,2,,9.39e+01,,,
"1/0365924537.01438",2014-12-06T05:42:20.990,13872,895.00,59.53,59.26,"03:14:13",140.36,-0.940,0.840,137.83,8.90e+01,2,,9.82e+01,6.50e+00,1,5.50e+00
"1/0365924544.37024",2014-12-06T05:42:28.533,13872,887.00,59.90,59.64,"03:25:48",140.31,-0.930,0.840,137.53,9.10e+01,2,,1.03e+02,6.43e+00,1,5.55e+00
"1/0365924552.07074",2014-12-06T05:42:36.076,13872,878.00,60.28,60.01,"03:37:23",140.26,-0.920,0.850,137.23,9.00e+01,2,,1.00e+02,,,
"1/0365924559.42726",2014-12-06T05:42:43.620,13872,870.00,60.66,60.39,"03:48:58",140.21,-0.920,0.850,136.92,9.00e+01,2,,1.00e+02,,,
"1/0365924567.12776",2014-12-06T05:42:51.163,13872,861.00,61.03,60.77,"04:02:50",140.15,-0.910,0.850,136.62,9.40e+01,2,,1.10e+02,,,
"1/0365924574.48362",2014-12-06T05:42:58.706,13872,853.00,61.41,61.15,"04:14:25",140.10,-0.900,0.860,136.31,9.80e+01,2,,1.19e+02,,,
"1/0365924582.18412",2014-12-06T05:43:06.249,13872,845.00,61.79,61.53,"04:28:18",140.04,-0.900,0.860,136.00,9.70e+01,2,,1.17e+02,,,
"1/0365924589.53998",2014-12-06T05:43:13.792,13872,837.00,62.18,61.92,"04:44:28",139.97,-0.890,0.860,135.69,9.50e+01,2,,1.12e+02,,,
"1/0365924597.24113",2014-12-06T05:43:21.336,13872,829.00,62.56,62.30,"04:58:20",139.91,-0.880,0.870,135.38,9.80e+01,2,,1.19e+02,,,
"1/0365924604.59700",2014-12-06T05:43:28.879,13872,821.00,62.94,62.69,"05:14:30",139.84,-0.880,0.870,135.06,1.01e+02,2,,1.26e+02,,,
"1/0365924612.29750",2014-12-06T05:43:36.422,13872,813.00,63.33,63.08,"05:30:40",139.77,-0.870,0.870,134.75,1.00e+02,2,,1.24e+02,,,
"1/0365924619.65336",2014-12-06T05:43:43.965,13872,805.00,63.72,63.47,"05:46:50",139.70,-0.860,0.880,134.43,1.01e+02,2,,1.26e+02,,,
"1/0365924627.35386",2014-12-06T05:43:51.508,13872,797.00,64.11,63.86,"06:05:17",139.62,-0.860,0.880,134.11,1.01e+02,2,,1.26e+02,,,
"1/0365924635.05501",2014-12-06T05:43:59.052,13872,789.00,64.50,64.25,"06:23:45",139.54,-0.850,0.880,133.78,9.80e+01,2,,1.19e+02,,,
"1/0365924642.41087",2014-12-06T05:44:06.595,13872,781.00,64.89,64.64,"06:44:29",139.45,-0.850,0.890,133.46,1.01e+02,2,,1.26e+02,,,
"1/0365924650.11137",2014-12-06T05:44:14.138,13872,774.00,65.28,65.04,"07:05:14",139.36,-0.840,0.890,133.13,1.03e+02,2,,1.32e+02,,,
"1/0365924657.46723",2014-12-06T05:44:21.681,13872,766.00,65.67,65.44,"07:25:59",139.27,-0.830,0.890,132.80,1.04e+02,2,,1.34e+02,,,
"1/0365924665.16773",2014-12-06T05:44:29.224,13872,758.00,66.07,65.83,"07:46:44",139.18,-0.830,0.900,132.47,1.07e+02,2,,1.42e+02,,,
"1/0365924672.52425",2014-12-06T05:44:36.768,13872,751.00,66.47,66.23,"08:12:04",139.07,-0.820,0.900,132.14,1.13e+02,2,,1.58e+02,,,
"1/0365924680.22475",2014-12-06T05:44:44.311,13872,744.00,66.86,66.63,"08:35:07",138.97,-0.810,0.900,131.80,1.08e+02,2,,1.45e+02,4.97e+00,1,7.19e+00
"1/0365924687.58061",2014-12-06T05:44:51.854,13872,736.00,67.26,67.04,"09:00:27",138.86,-0.800,0.910,131.46,1.07e+02,2,,1.42e+02,5.01e+00,1,7.13e+00
"1/0365924695.28111",2014-12-06T05:44:59.397,13872,729.00,67.66,67.44,"09:28:04",138.74,-0.800,0.910,131.12,1.05e+02,2,,1.37e+02,5.03e+00,1,7.10e+00
"1/0365924702.63697",2014-12-06T05:45:06.940,13872,722.00,68.07,67.84,"09:55:41",138.62,-0.790,0.910,130.78,1.08e+02,2,,1.45e+02,5.37e+00,1,6.65e+00
"1/0365924710.33812",2014-12-06T05:45:14.484,13872,714.00,68.47,68.25,"10:25:36",138.49,-0.780,0.910,130.44,1.05e+02,2,,1.37e+02,,,
"1/0365924718.03863",2014-12-06T05:45:22.027,13872,707.00,68.87,68.66,"10:55:31",138.36,-0.780,0.920,130.10,1.05e+02,2,,1.37e+02,,,
"1/0365924725.39449",2014-12-06T05:45:29.570,13872,700.00,69.28,69.06,"11:27:44",138.22,-0.770,0.920,129.75,9.60e+01,2,,1.14e+02,,,
"1/0365924733.09499",2014-12-06T05:45:37.113,13872,693.00,69.69,69.47,"12:02:14",138.07,-0.760,0.920,129.40,9.20e+01,2,,1.05e+02,,,
"1/0365924740.45150",2014-12-06T05:45:44.657,13872,686.00,70.09,69.89,"12:39:01",137.91,-0.760,0.930,129.05,1.05e+02,2,,1.37e+02,,,
"1/0365924748.15200",2014-12-06T05:45:52.200,13872,679.00,70.50,70.30,"13:15:49",137.75,-0.750,0.930,128.70,1.04e+02,2,,1.34e+02,,,
"1/0365924755.50786",2014-12-06T05:45:59.743,13872,672.00,70.91,70.71,"13:57:11",137.57,-0.740,0.930,128.34,9.50e+01,2,,1.12e+02,,,
"1/0365924763.20836",2014-12-06T05:46:07.286,13872,666.00,71.32,71.13,"14:38:34",137.39,-0.730,0.940,127.99,9.70e+01,2,,1.17e+02,5.24e+00,1,6.81e+00
"1/0365924770.56422",2014-12-06T05:46:14.829,13872,659.00,71.74,71.54,"15:22:14",137.20,-0.730,0.940,127.63,9.80e+01,2,,1.19e+02,,,
"1/0365924778.26538",2014-12-06T05:46:22.373,13872,652.00,72.15,71.96,"16:08:11",137.00,-0.720,0.940,127.27,9.90e+01,2,,1.22e+02,,,
"1/0365924785.62124",2014-12-06T05:46:29.916,13872,646.00,72.56,72.38,"16:58:44",136.78,-0.710,0.940,126.91,9.80e+01,2,,1.19e+02,,,
"1/0365924793.32174",2014-12-06T05:46:37.459,13872,639.00,72.98,72.79,"17:49:17",136.56,-0.710,0.950,126.55,1.00e+02,2,,1.24e+02,,,
"1/0365924801.02224",2014-12-06T05:46:45.002,13872,633.00,73.40,73.21,"18:44:24",136.32,-0.700,0.950,126.18,1.01e+02,2,,1.26e+02,,,
"1/0365924808.37810",2014-12-06T05:46:52.545,13872,627.00,73.81,73.64,"19:44:07",136.06,-0.690,0.950,125.82,1.03e+02,2,,1.32e+02,,,
"1/0365924816.07925",2014-12-06T05:47:00.089,13872,620.00,74.23,74.06,"20:46:07",135.79,-0.680,0.960,125.45,1.06e+02,2,,1.39e+02,,,
"1/0365924823.43511",2014-12-06T05:47:07.632,13872,614.00,74.65,74.48,"21:50:24",135.51,-0.680,0.960,125.08,1.11e+02,2,,1.53e+02,,,
"1/0365924831.13561",2014-12-06T05:47:15.175,13872,608.00,75.07,74.90,"23:01:35",135.20,-0.670,0.960,124.71,1.11e+02,2,,1.53e+02,5.46e+00,1,6.55e+00
"1/0365924838.49148",2014-12-06T05:47:22.718,13872,602.00,75.49,75.33,"00:15:02",134.88,-0.660,0.970,124.33,1.06e+02,2,,1.39e+02,,,
"1/0365924846.19198",2014-12-06T05:47:30.261,13872,596.00,75.91,75.75,"01:35:22",134.53,-0.660,0.970,123.96,1.00e+02,2,,1.24e+02,5.58e+00,1,6.40e+00
"1/0365924853.54849",2014-12-06T05:47:37.805,13872,590.00,76.33,76.18,"03:00:18",134.16,-0.650,0.970,123.58,9.90e+01,2,,1.22e+02,,,
"1/0365924861.24899",2014-12-06T05:47:45.348,13872,584.00,76.76,76.61,"04:32:05",133.76,-0.640,0.970,123.20,9.90e+01,2,,1.22e+02,,,
"1/0365924868.60485",2014-12-06T05:47:52.891,13872,579.00,77.18,77.03,"06:08:28",133.34,-0.630,0.980,122.82,9.90e+01,2,,1.22e+02,,,
"1/0365924876.30535",2014-12-06T05:48:00.434,13872,573.00,77.60,77.46,"07:54:01",132.88,-0.630,0.980,122.44,9.90e+01,2,,1.22e+02,,,
"1/0365924884.00585",2014-12-06T05:48:07.977,13872,567.00,78.02,77.89,"09:48:44",132.38,-0.620,0.980,122.06,1.01e+02,2,,1.26e+02,,,
"1/0365924891.36237",2014-12-06T05:48:15.521,13872,562.00,78.45,78.32,"11:50:19",131.85,-0.610,0.990,121.68,9.70e+01,2,,1.17e+02,,,
"1/0365924899.06287",2014-12-06T05:48:23.064,13872,557.00,78.87,78.74,"14:03:22",131.27,-0.600,0.990,121.29,9.50e+01,2,,1.12e+02,,,
"1/0365924906.41873",2014-12-06T05:48:30.607,13872,551.00,79.29,79.17,"16:25:35",130.65,-0.600,0.990,120.90,9.30e+01,2,,1.07e+02,,,
"1/0365924914.11923",2014-12-06T05:48:38.150,13872,546.00,79.72,79.60,"19:01:33",129.97,-0.590,0.990,120.51,9.60e+01,2,,1.14e+02,,,
"1/0365924921.47509",2014-12-06T05:48:45.693,13872,541.00,80.14,80.02,"21:53:34",129.22,-0.580,1.000,120.12,9.00e+01,2,,1.00e+02,,,
"1/0365924929.17624",2014-12-06T05:48:53.237,13872,536.00,80.56,80.45,"00:59:19",128.41,-0.570,1.000,119.73,8.90e+01,2,,9.82e+01,,,
"1/0365924936.53210",2014-12-06T05:49:00.780,13872,531.00,80.98,80.87,"04:25:42",127.51,-0.560,1.000,119.34,9.90e+01,2,,1.22e+02,,,
"1/0365924944.23260",2014-12-06T05:49:08.323,13872,526.00,81.40,81.30,"08:10:26",126.53,-0.560,1.000,118.94,1.04e+02,2,,1.34e+02,,,
"1/0365924951.58846",2014-12-06T05:49:15.866,13872,521.00,81.82,81.72,"12:22:39",125.43,-0.550,1.010,118.55,1.01e+02,2,,1.26e+02,,,
"1/0365924959.28897",2014-12-06T05:49:23.409,13872,516.00,82.23,82.14,"17:00:05",124.22,-0.540,1.010,118.15,1.07e+02,2,,1.42e+02,,,
"1/0365924966.64548",2014-12-06T05:49:30.953,13872,511.00,82.64,82.55,"22:11:54",122.86,-0.530,1.010,117.75,8.80e+01,2,,9.60e+01,,,
"1/0365924974.34598",2014-12-06T05:49:38.496,13872,507.00,83.05,82.97,"04:00:23",121.34,-0.530,1.010,117.35,8.00e+01,2,,7.94e+01,,,
"1/0365924982.04648",2014-12-06T05:49:46.039,13872,502.00,83.45,83.37,"10:34:42",119.62,-0.520,1.020,116.95,6.10e+01,2,,4.61e+01,,,
"1/0365924989.40234",2014-12-06T05:49:53.582,13872,498.00,83.85,83.77,"18:01:43",117.67,-0.510,1.020,116.55,8.80e+01,2,,9.60e+01,,,
"1/0365924997.10284",2014-12-06T05:50:01.125,13872,493.00,84.24,84.17,"02:32:56",115.44,-0.500,1.020,116.14,9.10e+01,2,,1.03e+02,,,
"1/0365925004.45936",2014-12-06T05:50:08.669,13872,489.00,84.62,84.55,"12:17:28",112.89,-0.490,1.020,115.74,8.70e+01,2,,9.39e+01,,,
"1/0365925012.15986",2014-12-06T05:50:16.212,13872,485.00,84.99,84.92,"23:31:23",109.95,-0.490,1.030,115.33,8.40e+01,2,,8.75e+01,,,
"1/0365925019.51572",2014-12-06T05:50:23.755,13872,480.00,85.34,85.28,"12:33:01",106.54,-0.480,1.030,114.92,6.70e+01,2,,5.57e+01,,,
"1/0365925027.21622",2014-12-06T05:50:31.298,13872,476.00,85.67,85.62,"03:40:43",102.58,-0.470,1.030,114.51,9.30e+01,2,,1.07e+02,,,
"1/0365925034.57208",2014-12-06T05:50:38.841,13872,472.00,85.99,85.93,"21:19:39",97.96,-0.460,1.030,114.10,8.70e+01,2,,9.39e+01,,,
"1/0365925042.27323",2014-12-06T05:50:46.385,13872,469.00,86.27,86.22,"17:48:12",92.60,-0.450,1.040,113.69,8.20e+01,2,,8.34e+01,,,
"1/0365925049.62909",2014-12-06T05:50:53.928,13872,465.00,86.51,86.46,"17:26:58",86.41,-0.450,1.040,113.28,8.90e+01,2,,9.82e+01,,,
"1/0365925057.32959",2014-12-06T05:51:01.471,13872,461.00,86.71,86.66,"20:20:32",79.37,-0.440,1.040,112.87,1.00e+02,2,,1.24e+02,,,
"1/0365925065.03009",2014-12-06T05:51:09.014,13872,458.00,86.85,86.81,"02:10:35",71.56,-0.430,1.040,112.45,9.60e+01,2,,1.14e+02,,,
"1/0365925072.38595",2014-12-06T05:51:16.557,13872,454.00,86.92,86.88,"10:13:33",63.17,-0.420,1.040,112.04,1.25e+02,2,,1.94e+02,,,
"1/0365925080.08711",2014-12-06T05:51:24.101,13872,451.00,86.93,86.89,"19:13:49",54.53,-0.410,1.050,111.62,1.32e+02,2,,2.16e+02,,,
"1/0365925087.44297",2014-12-06T05:51:31.644,13872,447.00,86.87,86.83,"03:44:17",46.02,-0.410,1.050,111.20,1.48e+02,2,,2.72e+02,,,
"1/0365925095.14347",2014-12-06T05:51:39.187,13872,444.00,86.75,86.70,"10:24:45",37.99,-0.400,1.050,110.78,1.54e+02,2,,2.94e+02,3.33e+00,1,1.07e+01
"1/0365925102.49933",2014-12-06T05:51:46.730,13872,441.00,86.56,86.51,"14:20:12",30.68,-0.390,1.050,110.36,1.50e+02,2,,2.79e+02,3.06e+00,1,1.17e+01
"1/0365925110.19983",2014-12-06T05:51:54.273,13872,438.00,86.32,86.27,"15:00:51",24.22,-0.380,1.060,109.94,1.56e+02,2,,3.02e+02,2.87e+00,1,1.25e+01
"1/0365925117.55635",2014-12-06T05:52:01.817,13872,435.00,86.04,85.99,"12:31:16",18.59,-0.370,1.060,109.52,1.65e+02,2,,3.38e+02,2.93e+00,1,1.22e+01
"1/0365925125.25685",2014-12-06T05:52:09.360,13872,432.00,85.73,85.68,"07:02:56",13.74,-0.370,1.060,109.10,1.63e+02,2,,3.29e+02,,,
"1/0365925132.61271",2014-12-06T05:52:16.903,13872,429.00,85.39,85.33,"22:58:45",9.57,-0.360,1.060,108.68,1.73e+02,2,,3.71e+02,2.89e+00,1,1.24e+01
"1/0365925140.31321",2014-12-06T05:52:24.446,13872,426.00,85.03,84.97,"12:39:20",5.99,-0.350,1.060,108.25,1.70e+02,2,,3.58e+02,2.91e+00,1,1.23e+01
"1/0365925148.01371",2014-12-06T05:52:31.989,13872,424.00,84.65,84.58,"00:25:21",2.91,-0.340,1.060,107.83,1.76e+02,2,,3.84e+02,2.80e+00,1,1.27e+01
"1/0365925155.37022",2014-12-06T05:52:39.533,13872,421.00,84.26,84.19,"10:39:41",0.23,-0.330,1.070,107.40,1.80e+02,2,,4.02e+02,2.63e+00,1,1.36e+01
"1/0365925163.07072",2014-12-06T05:52:47.076,13872,419.00,83.85,83.78,"12:25:35",357.91,-0.320,1.070,106.97,1.98e+02,2,,4.86e+02,2.48e+00,1,1.44e+01
"1/0365925170.42658",2014-12-06T05:52:54.619,13872,416.00,83.44,83.36,"20:13:14",355.87,-0.320,1.070,106.55,2.17e+02,2,,5.84e+02,2.29e+00,1,1.56e+01
"1/0365925178.12708",2014-12-06T05:53:02.162,13872,414.00,83.02,82.93,"03:03:36",354.08,-0.310,1.070,106.12,2.42e+02,2,,7.26e+02,2.25e+00,1,1.59e+01
"1/0365925185.48294",2014-12-06T05:53:09.705,13872,412.00,82.59,82.50,"09:05:50",352.50,-0.300,1.070,105.69,2.86e+02,2,,1.01e+03,2.23e+00,1,1.60e+01
"1/0365925193.18410",2014-12-06T05:53:17.249,13872,410.00,82.16,82.06,"14:29:06",351.09,-0.290,1.080,105.26,3.09e+02,2,,1.18e+03,2.25e+00,1,1.59e+01
"1/0365925200.53996",2014-12-06T05:53:24.792,13872,408.00,81.72,81.61,"19:18:00",349.83,-0.280,1.080,104.83,3.11e+02,2,,1.20e+03,,,
"1/0365925208.24046",2014-12-06T05:53:32.335,13872,406.00,81.27,81.17,"23:37:06",348.70,-0.270,1.080,104.40,3.23e+02,2,,1.29e+03,2.27e+00,1,1.57e+01
"1/0365925215.59632",2014-12-06T05:53:39.878,13872,404.00,80.83,80.71,"03:30:59",347.68,-0.270,1.080,103.97,3.29e+02,2,,1.34e+03,2.27e+00,1,1.57e+01
"1/0365925223.29682",2014-12-06T05:53:47.421,13872,402.00,80.38,80.26,"07:01:57",346.76,-0.260,1.080,103.54,3.31e+02,2,,1.36e+03,2.36e+00,1,1.52e+01
"1/0365925230.65334",2014-12-06T05:53:54.965,13872,401.00,79.92,79.80,"10:14:36",345.92,-0.250,1.080,103.10,3.51e+02,2,,1.53e+03,,,
"1/0365925238.35384",2014-12-06T05:54:02.508,13872,399.00,79.47,79.34,"13:11:11",345.15,-0.240,1.080,102.67,3.65e+02,2,,1.65e+03,,,
"1/0365925246.05434",2014-12-06T05:54:10.051,13872,398.00,79.01,78.88,"15:51:44",344.45,-0.230,1.090,102.24,3.76e+02,2,,1.75e+03,,,
"1/0365925253.41020",2014-12-06T05:54:17.594,13872,397.00,78.55,78.41,"18:20:50",343.80,-0.220,1.090,101.80,3.82e+02,2,,1.81e+03,,,
"1/0365925261.11070",2014-12-06T05:54:25.137,13872,395.00,78.09,77.95,"20:36:10",343.21,-0.220,1.090,101.37,3.80e+02,2,,1.79e+03,2.50e+00,1,1.43e+01
"1/0365925268.46721",2014-12-06T05:54:32.681,13872,394.00,77.63,77.48,"22:42:20",342.66,-0.210,1.090,100.93,3.67e+02,2,,1.67e+03,,,
"1/0365925276.16771",2014-12-06T05:54:40.224,13872,393.00,77.16,77.01,"00:37:03",342.16,-0.200,1.090,100.50,3.35e+02,2,,1.39e+03,2.70e+00,1,1.32e+01
"1/0365925283.52357",2014-12-06T05:54:47.767,13872,392.00,76.70,76.54,"02:24:54",341.69,-0.190,1.090,100.06,3.39e+02,2,,1.43e+03,,,
"1/0365925291.22407",2014-12-06T05:54:55.310,13872,391.00,76.23,76.06,"04:05:51",341.25,-0.180,1.090,99.62,3.74e+02,2,,1.73e+03,,,
"1/0365925298.58059",2014-12-06T05:55:02.854,13872,391.00,75.76,75.59,"05:39:57",340.84,-0.170,1.090,99.19,3.57e+02,2,,1.58e+03,,,
"1/0365925306.28109",2014-12-06T05:55:10.397,13872,390.00,75.29,75.12,"07:07:09",340.46,-0.170,1.100,98.75,3.53e+02,2,,1.55e+03,,,
"1/0365925313.63695",2014-12-06T05:55:17.940,13872,389.00,74.82,74.64,"08:27:29",340.11,-0.160,1.100,98.31,3.59e+02,2,,1.60e+03,,,